Regional Weather Roundup
Issued by NWS Wakefield, VA

Home | Current Version | Previous Version | Graphics & Text | Print | Product List | Glossary On
Versions: 1 2 3 4 5 6 7 8 9 10 11 12 13 14 15 16 17 18 19 20 21 22 23 24 25 26 27 28
000
ASUS41 KAKQ 291810
RWRAKQ

REGIONAL WEATHER ROUNDUP
NATIONAL WEATHER SERVICE WAKEFIELD VA
200 PM EDT WED OCT 29 2014

Note: "fair" indicates few or no clouds below 12,000 feet with no
significant weather and/or obstructions to visibility. * = Denotes
station may not report precipitation (e.g., rain,snow,etc.),
thunder or fog.

VAZ042-051-052>054-056-291900-
NORTHERN VIRGINIA

CITY           SKY/WX    TMP DP  RH WIND       PRES   REMARKS
WASH NATIONAL  LGT RAIN  61  45  55 NW12      29.97S
DULLES         LGT RAIN  54  52  93 N7        29.97F FOG
FORT BELVOIR   DRIZZLE   59  46  63 N6        29.97S
QUANTICO       CLOUDY    62  48  60 NE14G23   29.96R
FREDERICKSBRG* CLOUDY    65  50  57 N13G18    29.93R
STAFFORD*      CLOUDY    61  47  61 N13       29.99R
WARRENTON      LGT RAIN  56  56  97 N9        29.95S
CULPEPER*      RAIN      57  54  88 N7        29.95F
MANASSAS*      CLOUDY    54  54 100 N7        29.97
LEESBURG*      LGT RAIN  55  54  94 NW12      29.97F
WINCHESTER     LGT RAIN  55  46  71 CALM      29.96F
FRONT ROYAL*   CLOUDY    54  54 100 CALM      29.96F
LURAY*         CLOUDY    57  54  88 CALM      29.96F
$$

VAZ048-049-060>072-079>083-291900-
CENTRAL AND SOUTH CENTRAL VIRGINIA...AND NORTH CENTRAL NORTH CAROLINA

CITY           SKY/WX    TMP DP  RH WIND       PRES   REMARKS
RICHMOND       CLOUDY    76  58  53 W9G20     29.89F
CHESTERFIELD*  CLOUDY    75  54  46 W6        29.91F
PETERSBURG*    MOSUNNY   75  55  49 SW12      29.91F
HANOVER        CLOUDY    72  58  61 NW7       29.91F
TAPPAHANNOCK*  PTSUNNY   75  53  46 SW7       29.90F
CHARLOTTSVILLE CLOUDY    62  57  83 VRB5      29.94S
ORANGE*        LGT RAIN  61  55  82 N8        29.94F
LOUISA*        CLOUDY    68  57  68 N7        29.90F
FARMVILLE*     PTSUNNY   73  55  53 W3        29.90R
CREWE*         PTCLDY    75  56  52 W5        29.90F
FORT PICKETT*  PTCLDY    75  59  57 W8        29.91F
LUNENBURG*     PTCLDY    75  59  58 W3        29.92F
SOUTH HILL*    MOSUNNY   77  57  50 SW10G17   29.97F
LAWRENCEVILLE* PTCLDY    73  61  65 SW8       29.92F
ROANOKE RAPIDS PTCLDY    72  57  60 SW13      29.94F
RALEIGH        PTSUNNY   76  58  53 VRB7      29.96F
$$

VAZ088>098-291900-
SOUTHEAST VIRGINIA

CITY           SKY/WX    TMP DP  RH WIND       PRES   REMARKS
NORFOLK        CLOUDY    77  54  44 SW21G30   29.90F
VIRGINIA BEACH PTSUNNY   79  58  48 SW18      29.90F
NORFOLK NAVAL  CLOUDY    79  57  46 SW13G20   29.91F
WEST POINT*    MOSUNNY   79  56  45 SW9       29.90F
NEWPORT NEWS   PTSUNNY   77  58  51 SW17      29.90F
LANGLEY AFB    CLOUDY    76  59  55 SW18G26   29.90F
FORT EUSTIS    PTSUNNY   74  57  53 SW12G17   29.89F
WILLIAMSBURG*  PTSUNNY   77  61  57 W8G16     29.91F
HR EXEC AP*    CLOUDY    75  57  53 SW14G24   29.93F
FRANKLIN*      PTSUNNY   75  55  50 SW12G18   29.91F
WAKEFIELD      PTSUNNY   75  57  53 SW13G18   29.91F
$$

VAZ020-022-025-037-045-291900-
WEST CENTRAL AND SOUTHWEST VIRGINIA

CITY           SKY/WX    TMP DP  RH WIND       PRES   REMARKS
STAUNTON*      CLOUDY    58  51  78 N5        29.98S
HOT SPRINGS VA CLOUDY    47  44  87 W15       29.97F
LYNCHBURG      CLOUDY    62  49  62 W8        29.97F
DANVILLE       CLOUDY    71  57  61 W7        29.95F
SOUTH BOSTON*  NOT AVBL
MARTINSVILLE   CLOUDY    67  53  59 NW7       30.00S
ROANOKE        CLOUDY    60  43  53 NW10      30.02F
BLACKSBURG     CLOUDY    55  46  71 NW12      30.04F
DUBLIN*        CLOUDY    56  46  68 W8        30.05F
MARION*        CLOUDY    53  44  69 W8G16     30.09S
HILLSVILLE*    CLOUDY    53  45  76 NW17G25   30.04S
RICHLANDS*     CLOUDY    52  42  68 W3        30.08F
WISE*          CLOUDY    52  37  58 NW5       30.10S
ABINGDON*      CLOUDY    54  45  70 NW6       30.09S
$$

MDZ021>025-VAZ099-100-291900-
SOUTHERN MARYLAND AND THE DELMARVA PENINSULA

CITY           SKY/WX    TMP DP  RH WIND       PRES   REMARKS
PATUXENT RIVER PTSUNNY   67  55  65 N15       29.90F
BAY BRIDGE APT   N/A     63  45  51 NW10G21   29.93S
LEONARDTOWN    CLOUDY    66  54  63 CALM      29.92F
DOVER          CLOUDY    66  55  68 NW10      29.87S
GEORGETOWN     PTSUNNY   73  59  61 W8        29.88F
EASTON         CLOUDY    68  52  56 N13G21    29.95S
CAMBRIDGE      PTSUNNY   72  52  49 NW8G17    29.90S
SALISBURY      PTSUNNY   75  60  59 SW13      29.88F
OCEAN CITY     CLOUDY    73  55  53 SW13G22   29.87F
WALLOPS ISLAND CLOUDY    74  54  49 W14G23    29.88F
ACCOMACK*      CLOUDY    73  55  53 SW10G21   29.89F
$$

NCZ012>017-030>032-291900-
EASTERN NORTH CAROLINA

CITY           SKY/WX    TMP DP  RH WIND       PRES   REMARKS
ELIZABETH CITY PTSUNNY   80  60  50 SW16G25   29.94F
AHOSKIE*       NOT AVBL
EDENTON*       PTSUNNY   77  60  56 SW12G17   29.94F
CURRITUCK*     PTSUNNY   78  56  47 SW10      29.94F
KILL DEVIL HLS PTSUNNY   78  61  56 SW7       29.94F
MANTEO         PTSUNNY   76  62  61 SW13      29.95F
CAPE HATTERAS  PTSUNNY   74  67  78 SW8G16    29.99F
TARBORO*       MOCLDY    78  58  49 SW8       29.95F
GOLDSBORO      PTSUNNY   79  61  53 W15G22    29.94F
WASHINGTON     PTSUNNY   78  60  55 W9        29.96F
GREENVILLE     PTSUNNY   79  59  50 W12G17    29.97F
NEW BERN       PTSUNNY   81  61  50 SW12      29.98F
WILMINGTON     PTSUNNY   81  58  45 SW15      29.99F
$$

VAZ048-291900-
ELSEWHERE

CITY           SKY/WX    TMP DP  RH WIND       PRES   REMARKS
HARRISBURG PA  LGT RAIN  55  51  86 W3        29.94F FOG
BALTIMORE      CLOUDY    58  45  62 NW12G17   29.95F
ANNAPOLIS      PTSUNNY   62  45  53 NW16      29.94R
ANDREWS AFB    PTSUNNY   60  45  57 NW18      29.96S
WILMINGTON DE  CLOUDY    63  43  48 NW18      29.92S
PHILADELPHIA   CLOUDY    66  43  43 NW20      29.90S
WILDWOOD NJ*   CLOUDY    68  55  64 W7        29.88F
ATLANTIC CITY  PTSUNNY   72  57  59 NW10      29.85F
HENDERSON NC   PTSUNNY   75  55  49 SW8       29.94F
GREENSBORO     PTSUNNY   73  55  53 SW5       29.95F
ROCKY MOUNT    PTSUNNY   76  58  53 SW10G23   29.95F
FAYETTEVILLE   MOSUNNY   79  55  43 SW15      29.96F
CHARLOTTE      CLOUDY    78  54  43 W9G20     29.97F
$$

VAZ100-291900-
MARINE

STATION/POSITION TIME  TEMP    WIND        PRES    WAVE   SWELL
                       AIR SEA DIR/SP/G            HT/PER HT/PER
                 (UTC) (F)     (DEG/KT/KT) (MB)    (FT/S) (FT/S)
44066 TX TWR #4  1800   66 66  230/ 14/ 16 1010.8F
CAPE MAY NJ      1800   67 65  310/  4/  7 1011.0F
LEWES DE         1800   70 61  300/  9/ 11 1011.1F
15NM E FENWICK I 1800   66 64              1011.1F   4/ 5
OCEAN-CITY-INLET 1800   69 63  230/ 10/ 11 1011.0F
WACHAPREAGUE VA  1800   70 64  200/ 11/ 14 1012.0F
THOMAS POINT MD  1800   61 62  350/ 18/ 23 1014.2R
GOOSES REEF MD   1800   65     350/ 14/ 16 1013.4S
COVE POINT MD    1800   64      40/  8/  9 1012.6F
SOLOMONS ISLAND  1800      63                N/A
BISHOPS HEAD MD  1800   65 65  280/  3/  4 1011.8F
PINEY POINT MD   1800          340/  8/  9   N/A
POTOMAC MD       1800   67     330/  4/  6 1011.6F
CAMBRIDGE MD     1800   67 60  310/  9/ 13 1012.5R
LEWISETTA VA     1800   67 63  350/  6/ 10 1011.8F
RAPPAHANNOCK LGT 1800          180/ 11/ 12 1012.4F
STINGRAY PT      1800   70     230/ 12/ 16 1012.7F
YORK RVR RNG VA  1800   71     250/ 15/ 18 1011.5F
YORKTOWN VA      1800   73 64  230/ 12/ 14 1011.8F
JAMESTOWN VA     1800   71     260/ 17/ 21   N/A
DOMINION TERM VA 1800   70     230/ 12/ 15 1012.7F
KIPTOPEKE VA     1800      68  230/  9/ 11   N/A
CHES BAY BRIDGE  1800   74 64  210/ 19/ 22 1011.8F
CHESAPEAKE LGHT  1700   68     190/ 17/ 17 1014.0F
WILLOUBY STN VA  1800   72     240/ 20/ 22 1011.0F
S CRANEY ISL VA  1800          220/ 12/ 18 1012.4F
CAPE HENRY BUOY  1700      66                N/A     3/ 4
1ST LANDING BUOY 1800   73     230/ 17/ 25 1012.4F
CAPE CHARLES BUO 1800      66                N/A     2/ 4
64NM E OF VA BCH 1800   69 67  220/ 14/ 14 1013.6F   3/ 5
DUCK PIER NC     1800   74 68  220/  9/ 12 1013.2F
44100 DUCK FRF   1800      68                N/A     2/ 5
OREGON INLET NC  1800   68 67  190/ 14/ 16 1014.5F
HATTERAS NC      1800   74 71  220/ 10/ 13 1015.9F
DIAMOND SHLS NC  1800   76     240/ 19/ 21 1015.5F   4/ 5
CAPE LOOKOUT NC  1700   74     220/ 12/ 15 1016.6F
$$



USA.gov is the U.S. government's official web portal to all federal, state and local government web resources and services.